04-08-2022, 00:00:05,    218,    0.0,   14.9,   0.00,   0.00, 1011.6,   67.4, -999.0
04-08-2022, 00:00:14,    223,    0.6,   14.9,   0.00,   0.00, 1011.7,   67.6, -999.0
04-08-2022, 00:00:24,    222,    0.8,   15.0,   0.00,   0.00, 1011.7,   67.8, -999.0
04-08-2022, 00:00:35,    222,    0.5,   15.0,   0.00,   0.00, 1011.7,   67.7, -999.0
04-08-2022, 00:00:44,    222,    0.0,   15.0,   0.00,   0.00, 1011.6,   67.5, -999.0
04-08-2022, 00:00:54,    222,    0.0,   14.9,   0.00,   0.00, 1011.5,   67.5, -999.0
04-08-2022, 00:01:04,    222,    0.0,   14.8,   0.00,   0.00, 1011.6,   67.5, -999.0
04-08-2022, 00:01:14,    223,    0.0,   14.8,   0.00,   0.00, 1011.5,   67.5, -999.0
04-08-2022, 00:01:24,    222,    0.0,   15.0,   0.00,   0.00, 1011.6,   67.6, -999.0
04-08-2022, 00:01:34,    222,    0.0,   15.0,   0.00,   0.00, 1011.6,   67.4, -999.0
04-08-2022, 00:01:44,    222,    0.0,   15.0,   0.00,   0.00, 1011.6,   67.5, -999.0
04-08-2022, 00:01:54,    222,    0.0,   14.9,   0.00,   0.00, 1011.5,   67.6, -999.0
04-08-2022, 00:02:04,    222,    0.0,   15.0,   0.00,   0.00, 1011.6,   67.7, -999.0
04-08-2022, 00:02:14,    222,    0.5,   15.1,   0.00,   0.00, 1011.7,   67.9, -999.0
04-08-2022, 00:02:24,    222,    0.1,   15.0,   0.00,   0.00, 1011.6,   67.5, -999.0
04-08-2022, 00:02:34,    222,    0.8,   15.0,   0.00,   0.00, 1011.7,   67.5, -999.0
04-08-2022, 00:02:43,    222,    1.0,   15.1,   0.00,   0.00, 1011.7,   67.6, -999.0
04-08-2022, 00:02:53,    222,    0.8,   15.0,   0.00,   0.00, 1011.7,   67.6, -999.0
04-08-2022, 00:03:04,    222,    0.8,   15.0,   0.00,   0.00, 1011.7,   67.6, -999.0
04-08-2022, 00:03:13,    223,    1.0,   15.0,   0.00,   0.00, 1011.7,   67.7, -999.0
04-08-2022, 00:03:23,    222,    0.2,   14.9,   0.00,   0.00, 1011.6,   67.4, -999.0
04-08-2022, 00:03:34,    222,    0.0,   14.9,   0.00,   0.00, 1011.5,   67.4, -999.0
04-08-2022, 00:03:43,    223,    0.0,   14.9,   0.00,   0.00, 1011.5,   67.4, -999.0
04-08-2022, 00:03:53,    222,    0.0,   14.9,   0.00,   0.00, 1011.5,   67.3, -999.0
04-08-2022, 00:04:03,    222,    0.0,   14.9,   0.00,   0.00, 1011.5,   67.3, -999.0
04-08-2022, 00:04:13,    222,    0.0,   14.9,   0.00,   0.00, 1011.5,   67.4, -999.0
04-08-2022, 00:04:23,    222,    0.0,   14.9,   0.00,   0.00, 1011.5,   67.5, -999.0
04-08-2022, 00:04:33,    222,    0.0,   14.8,   0.00,   0.00, 1011.6,   67.5, -999.0
04-08-2022, 00:04:43,    223,    0.0,   14.9,   0.00,   0.00, 1011.6,   67.4, -999.0
04-08-2022, 00:04:53,    220,    0.0,   14.9,   0.00,   0.00, 1011.6,   67.5, -999.0
04-08-2022, 00:05:03,    220,    0.0,   14.9,   0.00,   0.00, 1011.6,   67.4, -999.0
04-08-2022, 00:05:13,    220,    0.0,   14.9,   0.00,   0.00, 1011.6,   67.3, -999.0
04-08-2022, 00:05:22,    220,    0.0,   14.9,   0.00,   0.00, 1011.5,   67.4, -999.0
04-08-2022, 00:05:33,    220,    0.0,   15.0,   0.00,   0.00, 1011.5,   67.4, -999.0
04-08-2022, 00:05:43,    220,    0.0,   14.9,   0.00,   0.00, 1011.5,   67.4, -999.0
04-08-2022, 00:05:52,    220,    0.0,   15.0,   0.00,   0.00, 1011.6,   67.5, -999.0
04-08-2022, 00:06:03,    220,    0.0,   14.9,   0.00,   0.00, 1011.6,   67.3, -999.0
04-08-2022, 00:06:12,    220,    0.0,   15.0,   0.00,   0.00, 1011.6,   67.4, -999.0
04-08-2022, 00:06:22,    220,    0.0,   14.8,   0.00,   0.00, 1011.6,   67.3, -999.0
04-08-2022, 00:06:32,    222,    0.0,   14.9,   0.00,   0.00, 1011.6,   67.3, -999.0
04-08-2022, 00:06:42,    222,    0.0,   14.9,   0.00,   0.00, 1011.6,   67.1, -999.0
04-08-2022, 00:06:52,    222,    0.0,   14.8,   0.00,   0.00, 1011.6,   67.0, -999.0
04-08-2022, 00:07:02,    222,    0.0,   14.9,   0.00,   0.00, 1011.6,   66.9, -999.0
04-08-2022, 00:07:12,    220,    0.0,   14.9,   0.00,   0.00, 1011.5,   66.9, -999.0
04-08-2022, 00:07:22,    220,    0.2,   14.9,   0.00,   0.00, 1011.6,   67.1, -999.0
04-08-2022, 00:07:32,    212,    0.7,   15.0,   0.00,   0.00, 1011.7,   67.3, -999.0
04-08-2022, 00:07:42,    179,    1.1,   14.9,   0.00,   0.00, 1011.7,   67.2, -999.0
04-08-2022, 00:07:52,    179,    0.1,   14.9,   0.00,   0.00, 1011.6,   67.1, -999.0
04-08-2022, 00:08:02,    179,    0.0,   14.9,   0.00,   0.00, 1011.6,   67.1, -999.0
04-08-2022, 00:08:12,    179,    0.0,   14.9,   0.00,   0.00, 1011.6,   67.2, -999.0
04-08-2022, 00:08:21,    184,    0.3,   14.9,   0.00,   0.00, 1011.7,   67.2, -999.0
04-08-2022, 00:08:32,    184,    1.0,   14.9,   0.00,   0.00, 1011.7,   67.4, -999.0
04-08-2022, 00:08:42,    185,    0.7,   14.9,   0.00,   0.00, 1011.8,   67.4, -999.0
04-08-2022, 00:08:51,    185,    0.0,   14.8,   0.00,   0.00, 1011.6,   67.1, -999.0
04-08-2022, 00:09:01,    184,    0.0,   14.7,   0.00,   0.00, 1011.6,   67.0, -999.0
04-08-2022, 00:09:12,    185,    0.0,   14.8,   0.00,   0.00, 1011.6,   67.1, -999.0
04-08-2022, 00:09:21,    188,    0.0,   14.7,   0.00,   0.00, 1011.6,   67.2, -999.0
04-08-2022, 00:09:31,    190,    1.0,   14.9,   0.00,   0.00, 1011.7,   67.5, -999.0
04-08-2022, 00:09:41,    192,    1.0,   14.9,   0.00,   0.00, 1011.8,   67.5, -999.0
04-08-2022, 00:09:51,    192,    0.7,   14.8,   0.00,   0.00, 1011.7,   67.4, -999.0
04-08-2022, 00:10:01,    191,    0.1,   14.8,   0.00,   0.00, 1011.7,   67.2, -999.0
04-08-2022, 00:10:11,    191,    0.0,   14.7,   0.00,   0.00, 1011.6,   67.2, -999.0
04-08-2022, 00:10:21,    191,    0.0,   14.7,   0.00,   0.00, 1011.6,   67.1, -999.0
04-08-2022, 00:10:31,    191,    0.0,   14.6,   0.00,   0.00, 1011.6,   67.3, -999.0
04-08-2022, 00:10:41,    191,    0.0,   14.7,   0.00,   0.00, 1011.6,   67.3, -999.0
04-08-2022, 00:10:51,    191,    0.0,   14.7,   0.00,   0.00, 1011.6,   67.4, -999.0
04-08-2022, 00:11:01,    191,    0.0,   14.7,   0.00,   0.00, 1011.6,   67.4, -999.0
04-08-2022, 00:11:11,    192,    0.0,   14.8,   0.00,   0.00, 1011.6,   67.5, -999.0
04-08-2022, 00:11:20,    192,    0.0,   14.7,   0.00,   0.00, 1011.6,   67.5, -999.0
04-08-2022, 00:11:30,    191,    0.0,   14.7,   0.00,   0.00, 1011.6,   67.5, -999.0
04-08-2022, 00:11:41,    191,    0.0,   14.8,   0.00,   0.00, 1011.5,   67.5, -999.0
04-08-2022, 00:11:50,    191,    0.0,   14.7,   0.00,   0.00, 1011.6,   67.5, -999.0
04-08-2022, 00:12:00,    185,    0.0,   14.8,   0.00,   0.00, 1011.5,   67.4, -999.0
04-08-2022, 00:12:10,    191,    0.0,   14.8,   0.00,   0.00, 1011.6,   67.4, -999.0
04-08-2022, 00:12:20,    192,    0.0,   14.7,   0.00,   0.00, 1011.5,   67.4, -999.0
04-08-2022, 00:12:30,    192,    0.0,   14.7,   0.00,   0.00, 1011.6,   67.2, -999.0
04-08-2022, 00:12:40,    192,    0.0,   14.7,   0.00,   0.00, 1011.6,   67.4, -999.0
04-08-2022, 00:12:50,    192,    0.0,   14.7,   0.00,   0.00, 1011.5,   67.4, -999.0
04-08-2022, 00:13:00,    192,    0.0,   14.7,   0.00,   0.00, 1011.6,   67.5, -999.0
04-08-2022, 00:13:10,    192,    0.0,   14.7,   0.00,   0.00, 1011.6,   67.5, -999.0
04-08-2022, 00:13:20,    192,    0.0,   14.7,   0.00,   0.00, 1011.6,   67.4, -999.0
04-08-2022, 00:13:30,    192,    0.0,   14.7,   0.00,   0.00, 1011.5,   67.4, -999.0
04-08-2022, 00:13:40,    192,    0.0,   14.7,   0.00,   0.00, 1011.5,   67.5, -999.0
04-08-2022, 00:13:50,    192,    0.0,   14.6,   0.00,   0.00, 1011.5,   67.5, -999.0
04-08-2022, 00:13:59,    192,    0.0,   14.7,   0.00,   0.00, 1011.5,   67.6, -999.0
04-08-2022, 00:14:10,    192,    0.0,   14.7,   0.00,   0.00, 1011.6,   67.6, -999.0
04-08-2022, 00:14:20,    192,    0.0,   14.7,   0.00,   0.00, 1011.5,   67.7, -999.0
04-08-2022, 00:14:29,    192,    0.0,   14.7,   0.00,   0.00, 1011.5,   67.6, -999.0
04-08-2022, 00:14:39,    192,    0.0,   14.6,   0.00,   0.00, 1011.6,   67.7, -999.0
04-08-2022, 00:14:49,    192,    0.0,   14.7,   0.00,   0.00, 1011.6,   67.8, -999.0
04-08-2022, 00:14:59,    192,    0.0,   14.7,   0.00,   0.00, 1011.5,   67.8, -999.0
04-08-2022, 00:15:09,    192,    0.0,   14.8,   0.00,   0.00, 1011.5,   67.7, -999.0
04-08-2022, 00:15:19,    192,    0.0,   14.7,   0.00,   0.00, 1011.5,   67.8, -999.0
04-08-2022, 00:15:29,    192,    0.0,   14.7,   0.00,   0.00, 1011.6,   67.8, -999.0
04-08-2022, 00:15:39,    191,    0.0,   14.7,   0.00,   0.00, 1011.5,   67.8, -999.0
04-08-2022, 00:15:49,    192,    0.0,   14.8,   0.00,   0.00, 1011.6,   67.9, -999.0
04-08-2022, 00:15:59,    192,    0.0,   14.8,   0.00,   0.00, 1011.6,   67.8, -999.0
04-08-2022, 00:16:09,    192,    0.0,   14.7,   0.00,   0.00, 1011.6,   67.7, -999.0
04-08-2022, 00:16:19,    192,    0.0,   14.7,   0.00,   0.00, 1011.6,   67.9, -999.0
04-08-2022, 00:16:29,    192,    0.0,   14.7,   0.00,   0.00, 1011.6,   67.8, -999.0
04-08-2022, 00:16:39,    192,    0.0,   14.7,   0.00,   0.00, 1011.5,   67.8, -999.0
04-08-2022, 00:16:49,    192,    0.0,   14.7,   0.00,   0.00, 1011.5,   67.8, -999.0
04-08-2022, 00:16:58,    192,    0.0,   14.8,   0.00,   0.00, 1011.5,   67.8, -999.0
04-08-2022, 00:17:09,    192,    0.0,   14.8,   0.00,   0.00, 1011.5,   67.7, -999.0
04-08-2022, 00:17:19,    192,    0.0,   14.8,   0.00,   0.00, 1011.6,   67.7, -999.0
04-08-2022, 00:17:28,    193,    0.0,   14.7,   0.00,   0.00, 1011.6,   67.6, -999.0
04-08-2022, 00:17:38,    193,    0.0,   14.7,   0.00,   0.00, 1011.6,   67.7, -999.0
04-08-2022, 00:17:48,    193,    0.0,   14.7,   0.00,   0.00, 1011.5,   67.6, -999.0
04-08-2022, 00:17:58,    194,    0.0,   14.8,   0.00,   0.00, 1011.6,   67.7, -999.0
04-08-2022, 00:18:08,    194,    0.0,   14.7,   0.00,   0.00, 1011.5,   67.8, -999.0
04-08-2022, 00:18:18,    194,    0.0,   14.8,   0.00,   0.00, 1011.6,   67.7, -999.0
04-08-2022, 00:18:28,    195,    0.1,   14.8,   0.00,   0.00, 1011.6,   68.0, -999.0
04-08-2022, 00:18:38,    195,    0.0,   14.8,   0.00,   0.00, 1011.6,   67.8, -999.0
04-08-2022, 00:18:48,    195,    0.0,   14.8,   0.00,   0.00, 1011.5,   67.6, -999.0
04-08-2022, 00:18:58,    195,    0.0,   14.8,   0.00,   0.00, 1011.6,   67.7, -999.0
04-08-2022, 00:19:08,    195,    0.0,   14.8,   0.00,   0.00, 1011.6,   67.6, -999.0
04-08-2022, 00:19:18,    195,    0.0,   14.7,   0.00,   0.00, 1011.5,   67.7, -999.0
04-08-2022, 00:19:28,    195,    0.0,   14.8,   0.00,   0.00, 1011.6,   67.7, -999.0
04-08-2022, 00:19:37,    195,    0.0,   14.8,   0.00,   0.00, 1011.5,   67.7, -999.0
04-08-2022, 00:19:48,    195,    0.0,   14.8,   0.00,   0.00, 1011.5,   67.7, -999.0
04-08-2022, 00:19:58,    195,    0.0,   14.8,   0.00,   0.00, 1011.5,   67.8, -999.0
04-08-2022, 00:20:07,    194,    0.0,   14.8,   0.00,   0.00, 1011.5,   67.5, -999.0
04-08-2022, 00:20:18,    195,    0.0,   14.8,   0.00,   0.00, 1011.5,   67.7, -999.0
04-08-2022, 00:20:27,    196,    0.0,   14.8,   0.00,   0.00, 1011.5,   67.6, -999.0
04-08-2022, 00:20:37,    195,    0.0,   14.7,   0.00,   0.00, 1011.5,   67.7, -999.0
04-08-2022, 00:20:47,    195,    0.0,   14.7,   0.00,   0.00, 1011.5,   67.7, -999.0
04-08-2022, 00:20:57,    195,    0.0,   14.7,   0.00,   0.00, 1011.5,   67.6, -999.0
04-08-2022, 00:21:07,    195,    0.0,   14.6,   0.00,   0.00, 1011.5,   67.6, -999.0
04-08-2022, 00:21:17,    193,    0.0,   14.8,   0.00,   0.00, 1011.5,   67.7, -999.0
04-08-2022, 00:21:27,    195,    0.0,   14.8,   0.00,   0.00, 1011.5,   67.7, -999.0
04-08-2022, 00:21:37,    195,    0.0,   14.8,   0.00,   0.00, 1011.5,   67.8, -999.0
04-08-2022, 00:21:47,    195,    0.0,   14.7,   0.00,   0.00, 1011.5,   67.8, -999.0
04-08-2022, 00:21:57,    195,    0.0,   14.8,   0.00,   0.00, 1011.5,   67.8, -999.0
04-08-2022, 00:22:07,    195,    0.0,   14.9,   0.00,   0.00, 1011.5,   67.9, -999.0
04-08-2022, 00:22:17,    195,    0.0,   14.8,   0.00,   0.00, 1011.5,   67.8, -999.0
04-08-2022, 00:22:27,    195,    0.0,   14.8,   0.00,   0.00, 1011.5,   67.9, -999.0
04-08-2022, 00:22:36,    195,    0.0,   14.8,   0.00,   0.00, 1011.5,   67.7, -999.0
04-08-2022, 00:22:47,    195,    0.0,   14.8,   0.00,   0.00, 1011.5,   67.7, -999.0
04-08-2022, 00:22:57,    195,    0.0,   14.7,   0.00,   0.00, 1011.5,   67.6, -999.0
04-08-2022, 00:23:06,    195,    0.0,   14.7,   0.00,   0.00, 1011.5,   67.6, -999.0
04-08-2022, 00:23:16,    195,    0.0,   14.8,   0.00,   0.00, 1011.5,   67.5, -999.0
04-08-2022, 00:23:26,    196,    0.0,   14.7,   0.00,   0.00, 1011.5,   67.6, -999.0
04-08-2022, 00:23:36,    195,    0.0,   14.7,   0.00,   0.00, 1011.5,   67.6, -999.0
04-08-2022, 00:23:46,    196,    0.0,   14.7,   0.00,   0.00, 1011.5,   67.7, -999.0
04-08-2022, 00:23:56,    196,    0.0,   14.6,   0.00,   0.00, 1011.5,   67.6, -999.0
04-08-2022, 00:24:06,    196,    0.0,   14.6,   0.00,   0.00, 1011.5,   67.7, -999.0
04-08-2022, 00:24:16,    196,    0.0,   14.8,   0.00,   0.00, 1011.5,   67.8, -999.0
04-08-2022, 00:24:26,    195,    0.0,   14.8,   0.00,   0.00, 1011.5,   67.8, -999.0
04-08-2022, 00:24:36,    195,    0.0,   14.7,   0.00,   0.00, 1011.6,   67.8, -999.0
04-08-2022, 00:24:46,    196,    0.0,   14.7,   0.00,   0.00, 1011.5,   67.8, -999.0
04-08-2022, 00:24:56,    196,    0.0,   14.7,   0.00,   0.00, 1011.5,   67.9, -999.0
04-08-2022, 00:25:06,    196,    0.0,   14.7,   0.00,   0.00, 1011.5,   67.8, -999.0
04-08-2022, 00:25:16,    196,    0.0,   14.8,   0.00,   0.00, 1011.6,   67.8, -999.0
04-08-2022, 00:25:26,    197,    0.0,   14.6,   0.00,   0.00, 1011.5,   67.7, -999.0
04-08-2022, 00:25:35,    197,    0.0,   14.7,   0.00,   0.00, 1011.5,   67.6, -999.0
04-08-2022, 00:25:45,    196,    0.0,   14.7,   0.00,   0.00, 1011.5,   67.7, -999.0
04-08-2022, 00:25:56,    194,    0.0,   14.6,   0.00,   0.00, 1011.5,   67.7, -999.0
04-08-2022, 00:26:05,    197,    0.0,   14.7,   0.00,   0.00, 1011.5,   67.8, -999.0
04-08-2022, 00:26:15,    197,    0.0,   14.7,   0.00,   0.00, 1011.5,   67.7, -999.0
04-08-2022, 00:26:26,    197,    0.0,   14.7,   0.00,   0.00, 1011.5,   67.8, -999.0
04-08-2022, 00:26:35,    197,    0.0,   14.7,   0.00,   0.00, 1011.5,   67.8, -999.0
04-08-2022, 00:26:45,    197,    0.0,   14.6,   0.00,   0.00, 1011.5,   67.8, -999.0
04-08-2022, 00:26:55,    197,    0.0,   14.6,   0.00,   0.00, 1011.5,   67.8, -999.0
04-08-2022, 00:27:05,    197,    0.0,   14.7,   0.00,   0.00, 1011.5,   68.1, -999.0
04-08-2022, 00:27:25,    197,    0.0,   14.7,   0.00,   0.00, 1011.5,   68.0, -999.0
04-08-2022, 00:27:35,    197,    0.0,   14.7,   0.00,   0.00, 1011.4,   68.0, -999.0
04-08-2022, 00:27:47,    197,    0.0,   14.7,   0.00,   0.00, 1011.4,   68.0, -999.0
04-08-2022, 00:27:55,    197,    0.0,   14.8,   0.00,   0.00, 1011.5,   68.0, -999.0
04-08-2022, 00:28:05,    197,    0.0,   14.7,   0.00,   0.00, 1011.5,   67.9, -999.0
04-08-2022, 00:28:15,    197,    0.0,   14.7,   0.00,   0.00, 1011.5,   68.0, -999.0
04-08-2022, 00:28:25,    197,    0.0,   14.7,   0.00,   0.00, 1011.4,   67.9, -999.0
04-08-2022, 00:28:34,    197,    0.0,   14.6,   0.00,   0.00, 1011.4,   68.0, -999.0
04-08-2022, 00:28:44,    197,    0.0,   14.7,   0.00,   0.00, 1011.4,   67.9, -999.0
04-08-2022, 00:28:55,    197,    0.0,   14.7,   0.00,   0.00, 1011.4,   67.9, -999.0
04-08-2022, 00:29:04,    197,    0.0,   14.7,   0.00,   0.00, 1011.5,   68.0, -999.0
04-08-2022, 00:29:14,    197,    0.0,   14.7,   0.00,   0.00, 1011.4,   67.9, -999.0
04-08-2022, 00:29:24,    197,    0.0,   14.7,   0.00,   0.00, 1011.5,   67.9, -999.0
04-08-2022, 00:29:34,    197,    0.0,   14.6,   0.00,   0.00, 1011.4,   67.8, -999.0
04-08-2022, 00:29:44,    197,    0.0,   14.7,   0.00,   0.00, 1011.4,   67.8, -999.0
04-08-2022, 00:29:54,    197,    0.0,   14.7,   0.00,   0.00, 1011.5,   67.8, -999.0
04-08-2022, 00:30:04,    197,    0.0,   14.7,   0.00,   0.00, 1011.4,   67.8, -999.0
04-08-2022, 00:30:14,    197,    0.0,   14.6,   0.00,   0.00, 1011.4,   67.8, -999.0
04-08-2022, 00:30:24,    196,    0.0,   14.7,   0.00,   0.00, 1011.4,   68.1, -999.0
04-08-2022, 00:30:34,    195,    0.0,   14.6,   0.00,   0.00, 1011.4,   67.9, -999.0
04-08-2022, 00:30:44,    196,    0.0,   14.7,   0.00,   0.00, 1011.4,   68.0, -999.0
04-08-2022, 00:30:54,    196,    0.0,   14.7,   0.00,   0.00, 1011.4,   68.0, -999.0
04-08-2022, 00:31:04,    197,    0.0,   14.7,   0.00,   0.00, 1011.4,   68.1, -999.0
04-08-2022, 00:31:13,    196,    0.0,   14.6,   0.00,   0.00, 1011.4,   68.0, -999.0
04-08-2022, 00:31:24,    198,    0.0,   14.7,   0.00,   0.00, 1011.4,   68.1, -999.0
04-08-2022, 00:31:33,    205,    0.2,   14.7,   0.00,   0.00, 1011.5,   68.3, -999.0
04-08-2022, 00:31:43,    206,    0.2,   14.7,   0.00,   0.00, 1011.5,   68.3, -999.0
04-08-2022, 00:31:53,    206,    0.0,   14.6,   0.00,   0.00, 1011.4,   68.2, -999.0
04-08-2022, 00:32:03,    206,    0.0,   14.5,   0.00,   0.00, 1011.5,   68.2, -999.0
04-08-2022, 00:32:13,    206,    0.0,   14.6,   0.00,   0.00, 1011.4,   68.1, -999.0
04-08-2022, 00:32:23,    206,    0.0,   14.7,   0.00,   0.00, 1011.4,   68.2, -999.0
04-08-2022, 00:32:33,    206,    0.0,   14.6,   0.00,   0.00, 1011.4,   68.1, -999.0
04-08-2022, 00:32:43,    206,    0.0,   14.7,   0.00,   0.00, 1011.4,   68.2, -999.0
04-08-2022, 00:32:53,    206,    0.0,   14.7,   0.00,   0.00, 1011.5,   68.3, -999.0
04-08-2022, 00:33:03,    206,    0.0,   14.7,   0.00,   0.00, 1011.4,   68.3, -999.0
04-08-2022, 00:33:13,    214,    0.0,   14.7,   0.00,   0.00, 1011.4,   68.3, -999.0
04-08-2022, 00:33:23,    214,    0.0,   14.6,   0.00,   0.00, 1011.4,   68.3, -999.0
04-08-2022, 00:33:33,    216,    0.0,   14.7,   0.00,   0.00, 1011.5,   68.3, -999.0
04-08-2022, 00:33:42,    222,    0.0,   14.7,   0.00,   0.00, 1011.4,   68.2, -999.0
04-08-2022, 00:33:53,    222,    0.0,   14.7,   0.00,   0.00, 1011.4,   68.1, -999.0
04-08-2022, 00:34:03,    222,    0.0,   14.7,   0.00,   0.00, 1011.4,   68.1, -999.0
04-08-2022, 00:34:12,    222,    0.0,   14.6,   0.00,   0.00, 1011.4,   68.2, -999.0
04-08-2022, 00:34:23,    222,    0.0,   14.6,   0.00,   0.00, 1011.4,   68.1, -999.0
04-08-2022, 00:34:33,    222,    0.0,   14.6,   0.00,   0.00, 1011.4,   68.2, -999.0
04-08-2022, 00:34:42,    223,    0.0,   14.6,   0.00,   0.00, 1011.4,   68.3, -999.0
04-08-2022, 00:34:52,    223,    0.0,   14.6,   0.00,   0.00, 1011.4,   68.3, -999.0
04-08-2022, 00:35:02,    223,    0.0,   14.6,   0.00,   0.00, 1011.4,   68.3, -999.0
04-08-2022, 00:35:12,    222,    0.0,   14.6,   0.00,   0.00, 1011.4,   68.3, -999.0
04-08-2022, 00:35:22,    223,    0.0,   14.5,   0.00,   0.00, 1011.4,   68.3, -999.0
04-08-2022, 00:35:32,    223,    0.0,   14.7,   0.00,   0.00, 1011.4,   68.2, -999.0
04-08-2022, 00:35:42,    223,    0.0,   14.7,   0.00,   0.00, 1011.4,   68.2, -999.0
04-08-2022, 00:35:52,    223,    0.0,   14.6,   0.00,   0.00, 1011.4,   68.1, -999.0
04-08-2022, 00:36:02,    223,    0.0,   14.7,   0.00,   0.00, 1011.4,   68.1, -999.0
04-08-2022, 00:36:12,    223,    0.0,   14.6,   0.00,   0.00, 1011.4,   68.1, -999.0
04-08-2022, 00:36:22,    223,    0.0,   14.7,   0.00,   0.00, 1011.4,   68.2, -999.0
04-08-2022, 00:36:32,    222,    0.0,   14.7,   0.00,   0.00, 1011.4,   68.1, -999.0
04-08-2022, 00:36:42,    223,    0.0,   14.7,   0.00,   0.00, 1011.4,   68.1, -999.0
04-08-2022, 00:36:51,    223,    0.0,   14.7,   0.00,   0.00, 1011.4,   68.2, -999.0
04-08-2022, 00:37:02,    223,    0.0,   14.7,   0.00,   0.00, 1011.4,   68.1, -999.0
04-08-2022, 00:37:11,    222,    0.0,   14.7,   0.00,   0.00, 1011.4,   68.2, -999.0
04-08-2022, 00:37:21,    223,    0.0,   14.7,   0.00,   0.00, 1011.5,   68.2, -999.0
04-08-2022, 00:37:32,    223,    0.0,   14.7,   0.00,   0.00, 1011.5,   68.2, -999.0
04-08-2022, 00:37:41,    223,    0.0,   14.7,   0.00,   0.00, 1011.5,   68.1, -999.0
04-08-2022, 00:37:51,    223,    0.0,   14.7,   0.00,   0.00, 1011.5,   68.2, -999.0
04-08-2022, 00:38:01,    222,    0.0,   14.6,   0.00,   0.00, 1011.4,   68.2, -999.0
04-08-2022, 00:38:11,    222,    0.0,   14.7,   0.00,   0.00, 1011.5,   68.2, -999.0
04-08-2022, 00:38:21,    223,    0.0,   14.7,   0.00,   0.00, 1011.5,   68.2, -999.0
04-08-2022, 00:38:31,    223,    0.0,   14.7,   0.00,   0.00, 1011.5,   68.2, -999.0
04-08-2022, 00:38:41,    222,    0.0,   14.7,   0.00,   0.00, 1011.5,   68.2, -999.0
04-08-2022, 00:38:51,    223,    0.0,   14.8,   0.00,   0.00, 1011.5,   68.2, -999.0
04-08-2022, 00:39:01,    223,    0.0,   14.7,   0.00,   0.00, 1011.5,   68.2, -999.0
04-08-2022, 00:39:11,    225,    0.2,   14.7,   0.00,   0.00, 1011.5,   68.5, -999.0
04-08-2022, 00:39:21,    225,    0.4,   14.8,   0.00,   0.00, 1011.5,   68.4, -999.0
04-08-2022, 00:39:31,    226,    0.7,   14.7,   0.00,   0.00, 1011.6,   68.4, -999.0
04-08-2022, 00:39:41,    229,    1.2,   14.8,   0.00,   0.00, 1011.6,   68.4, -999.0
04-08-2022, 00:39:50,    228,    0.2,   14.8,   0.00,   0.00, 1011.5,   68.4, -999.0
04-08-2022, 00:40:01,    229,    0.0,   14.7,   0.00,   0.00, 1011.4,   68.2, -999.0
04-08-2022, 00:40:10,    229,    0.0,   14.7,   0.00,   0.00, 1011.4,   68.2, -999.0
04-08-2022, 00:40:20,    229,    0.0,   14.7,   0.00,   0.00, 1011.4,   68.1, -999.0
04-08-2022, 00:40:30,    229,    0.0,   14.7,   0.00,   0.00, 1011.4,   68.1, -999.0
04-08-2022, 00:40:40,    229,    0.0,   14.7,   0.00,   0.00, 1011.4,   68.2, -999.0
04-08-2022, 00:40:50,    229,    0.0,   14.7,   0.00,   0.00, 1011.4,   68.1, -999.0
04-08-2022, 00:41:00,    227,    0.0,   14.7,   0.00,   0.00, 1011.4,   68.1, -999.0
04-08-2022, 00:41:10,    227,    0.0,   14.7,   0.00,   0.00, 1011.4,   68.2, -999.0
04-08-2022, 00:41:20,    227,    0.0,   14.7,   0.00,   0.00, 1011.4,   68.1, -999.0
04-08-2022, 00:41:30,    228,    0.0,   14.8,   0.00,   0.00, 1011.4,   68.2, -999.0
04-08-2022, 00:41:40,    228,    0.0,   14.8,   0.00,   0.00, 1011.4,   68.2, -999.0
04-08-2022, 00:41:50,    227,    0.0,   14.7,   0.00,   0.00, 1011.4,   68.0, -999.0
04-08-2022, 00:42:00,    227,    0.0,   14.7,   0.00,   0.00, 1011.4,   68.1, -999.0
04-08-2022, 00:42:10,    227,    0.0,   14.7,   0.00,   0.00, 1011.4,   68.1, -999.0
04-08-2022, 00:42:19,    228,    0.0,   14.7,   0.00,   0.00, 1011.4,   68.0, -999.0
04-08-2022, 00:42:30,    228,    0.0,   14.7,   0.00,   0.00, 1011.4,   68.0, -999.0
04-08-2022, 00:42:40,    228,    0.0,   14.8,   0.00,   0.00, 1011.4,   68.0, -999.0
04-08-2022, 00:42:49,    228,    0.0,   14.7,   0.00,   0.00, 1011.4,   68.1, -999.0
04-08-2022, 00:42:59,    228,    0.0,   14.7,   0.00,   0.00, 1011.4,   68.0, -999.0
04-08-2022, 00:43:10,    228,    0.0,   14.7,   0.00,   0.00, 1011.4,   68.0, -999.0
04-08-2022, 00:43:19,    227,    0.0,   14.8,   0.00,   0.00, 1011.4,   68.0, -999.0
04-08-2022, 00:43:29,    227,    0.0,   14.7,   0.00,   0.00, 1011.5,   68.0, -999.0
04-08-2022, 00:43:39,    227,    0.0,   14.8,   0.00,   0.00, 1011.4,   67.9, -999.0
04-08-2022, 00:43:49,    227,    0.0,   14.7,   0.00,   0.00, 1011.4,   68.0, -999.0
04-08-2022, 00:43:59,    227,    0.0,   14.7,   0.00,   0.00, 1011.4,   67.9, -999.0
04-08-2022, 00:44:09,    229,    0.0,   14.8,   0.00,   0.00, 1011.4,   68.0, -999.0
04-08-2022, 00:44:19,    229,    0.2,   14.8,   0.00,   0.00, 1011.5,   68.2, -999.0
04-08-2022, 00:44:29,    228,    0.4,   14.8,   0.00,   0.00, 1011.5,   68.5, -999.0
04-08-2022, 00:44:39,    229,    0.2,   14.8,   0.00,   0.00, 1011.5,   68.3, -999.0
04-08-2022, 00:44:49,    229,    0.0,   14.7,   0.00,   0.00, 1011.5,   68.1, -999.0
04-08-2022, 00:44:59,    229,    0.0,   14.7,   0.00,   0.00, 1011.4,   68.0, -999.0
04-08-2022, 00:45:09,    229,    0.0,   14.7,   0.00,   0.00, 1011.4,   68.1, -999.0
04-08-2022, 00:45:18,    229,    0.0,   14.7,   0.00,   0.00, 1011.4,   68.0, -999.0
04-08-2022, 00:45:29,    228,    0.0,   14.7,   0.00,   0.00, 1011.4,   68.1, -999.0
04-08-2022, 00:45:39,    228,    0.0,   14.7,   0.00,   0.00, 1011.4,   68.1, -999.0
04-08-2022, 00:45:48,    228,    0.0,   14.7,   0.00,   0.00, 1011.4,   68.1, -999.0
04-08-2022, 00:45:58,    228,    0.0,   14.7,   0.00,   0.00, 1011.4,   68.0, -999.0
04-08-2022, 00:46:09,    228,    0.0,   14.7,   0.00,   0.00, 1011.4,   68.2, -999.0
04-08-2022, 00:46:18,    227,    0.0,   14.6,   0.00,   0.00, 1011.5,   68.1, -999.0
04-08-2022, 00:46:28,    227,    0.4,   14.7,   0.00,   0.00, 1011.6,   68.4, -999.0
04-08-2022, 00:46:38,    228,    0.0,   14.7,   0.00,   0.00, 1011.4,   68.1, -999.0
04-08-2022, 00:46:48,    228,    0.0,   14.6,   0.00,   0.00, 1011.4,   68.2, -999.0